Location: Cosy Dell
(34.2789°N, 117.4537°W)
Time: 21:06:39
(UTC+00:00)

ERS-1 - Pass Details

Date: 14 July 2020
Orbit: 741 x 790 km, 98.6° (Epoch: 13 August)

Event Time Altitude Azimuth Distance (km) Brightness Sun altitude
Rises 10:36:40 0° 12° (NNE) 3,235 8.7 -22.3°
Reaches altitude 10° 10:38:59 10° 12° (NNE) 2,298 7.8 -22.0°
Maximum altitude 10:44:03 85° 286° (WNW) 761 4.4 -21.3°
Enters shadow 10:45:38 45° 199° (SSW) 1,018 4.7 -21.1°
